Pagina principale
METAR-TAF:

METAR-TAF

Aeroporti :

North Kingstown, Rhode Island, Stati Uniti

latitudine: 41-36N, longitudine: 071-25W, altezza: 6 m

Osservazione

Il bollettino è stato emesso 33 minuti fa, alle 22:50 UTC
Vento 14 kt da nord/nord-ovest
Temperature -2°C
Umidità 46%
Pressione 1016 hPa
Visibilità: 24.1 km
Cielo sereno

METAR: KOQU 182250Z 34014KT 15SM SKC M02/M12 A3001

Ora: 18:23 (23:23 UTC)


TAF: mancante

Osservazioni e previsioni meteorologiche di più di 4000 aeroporti (messaggi METAR e TAF).

Le stazioni disponibili sono rappresentate dai dischi gialli e rossi sulla carta.

Puntare il mouse per vedere il nome della stazione.

Clicca sopra per visualizzare le osservazioni e previsioni meteorologiche.

Per cambiare la mappa : fare clic sui pulsanti verdi con una croce nera per ingrandire, il pulsante verde con un trattino per diminuire, o sulla freccia verde per le mappe adiacenti.


METAR-TAF: